Date String (YYYY-MM-DD hh:mm:ss) UTC,Instrument flags,Ambient pressure (hPa),Sample flow (lpm),Bypass flow (lpm),Sample temperature (°C),Ambient temperature (°C),ASC tube jacket temperature (°C),LED temperature (°C),Box temperature (°C),Sample RH (%),Span deviation,Mass concentration (μg/m³),Mass concentration (μg/m³),Mass concentration (μg/m³)
DateTimeUTC,F1_M11,P_M11,Q1_M11,Q2_M11,T1_M11,T2_M11,T3_M11,T4_M11,T5_M11,U1_M11,ZSPAN_M11,X2_M11,X0_M11,X1_M11
2021-09-24 15:00:00,,0834.0,4.99,0.00,30.6,29.7,00.0,39.7,32.3,14.0,0000.0,0004.25,0011.18,0003.53
2021-09-24 15:01:00,,0834.0,5.01,0.00,30.6,29.7,00.0,39.7,32.3,14.1,0000.0,0004.23,0010.89,0003.50
2021-09-24 15:02:00,,0834.0,5.00,0.00,30.6,29.8,00.0,39.7,32.3,14.1,0000.0,0004.18,0011.22,0003.48
2021-09-24 15:03:00,,0834.0,4.99,0.00,30.6,29.8,00.0,39.7,32.3,14.1,0000.0,0004.14,0011.42,0003.46
2021-09-24 15:04:00,,0834.0,5.01,0.00,30.6,29.8,00.0,39.7,32.4,14.2,0000.0,0004.09,0011.49,0003.43
2021-09-24 15:05:00,,0834.0,4.99,0.00,30.6,29.8,00.0,39.7,32.4,14.0,0000.0,0004.05,0010.90,0003.41
2021-09-24 15:06:00,,0834.0,5.00,0.00,30.6,29.8,00.0,39.7,32.4,14.0,0000.0,0004.04,0011.05,0003.40
2021-09-24 15:07:00,,0834.0,5.00,0.00,30.6,29.8,00.0,39.7,32.4,14.0,0000.0,0004.03,0011.50,0003.39
2021-09-24 15:08:00,,0834.0,5.02,0.00,30.6,29.8,00.0,39.8,32.4,14.1,0000.0,0003.98,0011.49,0003.37
2021-09-24 15:09:00,,0834.0,4.99,0.00,30.7,29.8,00.0,39.8,32.4,14.1,0000.0,0003.97,0011.95,0003.36
2021-09-24 15:10:00,,0834.0,4.99,0.00,30.7,29.8,00.0,39.8,32.4,14.1,0000.0,0003.95,0012.33,0003.35
2021-09-24 15:11:00,,0834.0,5.01,0.00,30.7,29.9,00.0,39.8,32.4,14.2,0000.0,0003.93,0012.85,0003.34
2021-09-24 15:12:00,,0834.0,4.99,0.00,30.7,29.9,00.0,39.8,32.4,14.2,0000.0,0003.92,0013.06,0003.34
2021-09-24 15:13:00,,0834.1,4.99,0.00,30.7,29.9,00.0,39.8,32.5,14.1,0000.0,0003.92,0012.54,0003.35
2021-09-24 15:14:00,,0834.1,5.00,0.00,30.7,29.9,00.0,39.8,32.5,14.1,0000.0,0003.89,0011.75,0003.34
2021-09-24 15:15:00,,0834.1,5.01,0.00,30.7,29.9,00.0,39.8,32.5,14.1,0000.0,0003.88,0011.63,0003.34
2021-09-24 15:16:00,,0834.1,4.99,0.00,30.7,29.9,00.0,39.8,32.5,14.1,0000.0,0003.88,0012.29,0003.34
2021-09-24 15:17:00,,0834.0,5.00,0.00,30.7,30.0,00.0,39.8,32.5,14.1,0000.0,0003.92,0013.55,0003.35
2021-09-24 15:18:00,,0834.1,5.01,0.00,30.8,30.0,00.0,39.9,32.5,14.2,0000.0,0003.92,0013.29,0003.34
2021-09-24 15:19:00,,0834.1,4.99,0.00,30.8,30.0,00.0,39.9,32.5,14.1,0000.0,0003.98,0013.65,0003.35
2021-09-24 15:20:00,,0834.0,5.02,0.00,30.8,30.0,00.0,39.9,32.5,14.1,0000.0,0003.94,0013.25,0003.34
2021-09-24 15:21:00,,0834.0,4.99,0.00,30.8,30.0,00.0,39.9,32.5,14.2,0000.0,0003.95,0012.81,0003.34
2021-09-24 15:22:00,,0834.1,5.01,0.00,30.8,30.0,00.0,39.9,32.5,14.2,0000.0,0003.97,0011.94,0003.34
2021-09-24 15:23:00,,0834.0,5.00,0.00,30.8,30.0,00.0,39.9,32.5,14.1,0000.0,0003.96,0011.33,0003.34
2021-09-24 15:24:00,,0834.1,4.99,0.00,30.8,30.0,00.0,39.9,32.5,14.2,0000.0,0003.96,0011.63,0003.32
2021-09-24 15:25:00,,0834.1,5.01,0.00,30.8,30.1,00.0,39.9,32.6,14.2,0000.0,0003.96,0011.74,0003.33
2021-09-24 15:26:00,,0834.1,5.00,0.00,30.8,30.1,00.0,39.9,32.6,14.2,0000.0,0003.98,0011.73,0003.32
2021-09-24 15:27:00,,0834.1,5.00,0.00,30.9,30.1,00.0,39.9,32.6,14.1,0000.0,0004.01,0011.15,0003.32
2021-09-24 15:28:00,,0834.1,5.00,0.00,30.9,30.1,00.0,40.0,32.6,14.1,0000.0,0004.00,0009.72,0003.30
2021-09-24 15:29:00,,0834.1,5.01,0.00,30.9,30.1,00.0,40.0,32.6,14.2,0000.0,0003.96,0009.30,0003.28
2021-09-24 15:30:00,,0834.1,5.00,0.00,30.9,30.1,00.0,40.0,32.6,14.1,0000.0,0003.92,0008.74,0003.28
2021-09-24 15:31:00,,0834.1,5.00,0.00,30.9,30.1,00.0,40.0,32.6,14.1,0000.0,0003.94,0009.08,0003.28
2021-09-24 15:32:00,,0834.1,4.99,0.00,30.9,30.2,00.0,40.0,32.6,14.1,0000.0,0003.93,0009.25,0003.27
2021-09-24 15:33:00,,0834.2,5.01,0.00,30.9,30.2,00.0,40.0,32.7,14.1,0000.0,0003.90,0009.75,0003.27
2021-09-24 15:34:00,,0834.2,5.00,0.00,31.0,30.2,00.0,40.0,32.7,14.1,0000.0,0003.90,0009.76,0003.27
2021-09-24 15:35:00,,0834.2,5.01,0.00,31.0,30.2,00.0,40.0,32.7,14.1,0000.0,0003.90,0009.86,0003.27
2021-09-24 15:36:00,,0834.2,4.99,0.00,31.0,30.2,00.0,40.1,32.7,14.1,0000.0,0003.92,0009.98,0003.27
2021-09-24 15:37:00,,0834.2,5.01,0.00,31.0,30.3,00.0,40.1,32.7,14.2,0000.0,0003.94,0010.32,0003.27
2021-09-24 15:38:00,,0834.1,5.01,0.00,31.0,30.3,00.0,40.1,32.8,14.1,0000.0,0003.92,0010.60,0003.27
2021-09-24 15:39:00,,0834.2,4.98,0.00,31.0,30.3,00.0,40.1,32.8,14.2,0000.0,0003.91,0010.83,0003.27
2021-09-24 15:40:00,,0834.2,5.02,0.00,31.1,30.3,00.0,40.1,32.8,14.1,0000.0,0003.97,0011.07,0003.28
2021-09-24 15:41:00,,0834.3,5.00,0.00,31.1,30.3,00.0,40.1,32.8,14.1,0000.0,0004.01,0010.94,0003.28
2021-09-24 15:42:00,,0834.3,5.00,0.00,31.1,30.4,00.0,40.1,32.8,14.0,0000.0,0004.04,0010.51,0003.28
2021-09-24 15:43:00,,0834.3,4.99,0.00,31.1,30.4,00.0,40.2,32.8,14.0,0000.0,0004.04,0010.79,0003.28
2021-09-24 15:44:00,,0834.2,5.01,0.00,31.1,30.4,00.0,40.2,32.8,14.2,0000.0,0004.05,0010.43,0003.28
2021-09-24 15:45:00,,0834.2,4.99,0.00,31.1,30.4,00.0,40.2,32.9,14.2,0000.0,0004.04,0010.55,0003.28
2021-09-24 15:46:00,,0834.3,5.01,0.00,31.1,30.4,00.0,40.2,32.9,14.2,0000.0,0004.05,0010.41,0003.28
2021-09-24 15:47:00,,0834.3,5.00,0.00,31.1,30.4,00.0,40.2,32.9,14.1,0000.0,0004.02,0010.15,0003.28
2021-09-24 15:48:00,,0834.2,4.99,0.00,31.1,29.4,00.0,40.2,32.7,14.1,0000.0,0004.01,0009.96,0003.27
2021-09-24 15:49:00,,0834.2,4.99,0.00,31.0,27.5,00.0,40.2,32.2,14.3,0000.0,0004.05,0009.50,0003.27
2021-09-24 15:50:00,,0834.2,5.02,0.00,30.8,27.2,00.0,40.1,32.1,14.3,0000.0,0004.06,0009.83,0003.28
2021-09-24 15:51:00,,0834.3,4.99,0.00,30.8,27.5,00.0,40.1,32.1,14.4,0000.0,0004.02,0010.29,0003.28
2021-09-24 15:52:00,,0834.2,5.01,0.00,30.7,27.9,00.0,40.0,32.1,14.5,0000.0,0003.97,0010.24,0003.28
2021-09-24 15:53:00,,0834.2,4.99,0.00,30.7,28.3,00.0,40.0,32.1,14.6,0000.0,0003.94,0010.11,0003.27
2021-09-24 15:54:00,,0834.2,4.99,0.00,30.7,28.6,00.0,39.9,32.2,14.5,0000.0,0003.93,0009.93,0003.28
2021-09-24 15:55:00,,0834.2,5.00,0.00,30.7,28.9,00.0,39.9,32.3,14.6,0000.0,0003.99,0009.75,0003.28
2021-09-24 15:56:00,,0834.2,5.01,0.00,30.7,29.1,00.0,39.9,32.3,14.6,0000.0,0004.05,0009.75,0003.28
2021-09-24 15:57:00,,0834.2,4.99,0.00,30.7,29.2,00.0,39.9,32.3,14.6,0000.0,0004.06,0009.64,0003.28
2021-09-24 15:58:00,,0834.2,5.01,0.00,30.7,29.4,00.0,39.9,32.4,14.6,0000.0,0004.08,0009.63,0003.27
2021-09-24 15:59:00,,0834.2,4.99,0.00,30.7,29.5,00.0,39.9,32.4,14.5,0000.0,0004.07,0009.99,0003.27
